[[{"header":{"parameterUnit":"m.s-1","parameterCategory":1,"la1":30.2991,"la2":30.254,"lo1":-89.0895,"lo2":-89.0444,"dy":0.0017,"dx":0.0017,"nx":28,"ny":28,"refTime":"2023-11-13T09:00:00:Z","depth":0,"parameterNumber":2,"parameterNumberName":"U-component_of_WINDS"},"data":[0,0,0,0,0,0,0,0,0,0,0,0,0,0,0,0,0,0,0,0,0,0,0,0,0,0,0,0,0,0,0,0,0,0,0,0,0,0,0,0,0,0,0,0,0,0,0,0,0,0,0,0,0,0,0,0,0,0,-6.1087,-6.1089,0,-6.1254,-6.1256,-6.1258,-6.1149,-6.1144,-6.1139,-6.1135,-6.131,-6.1319,-6.1328,0,0,0,0,0,0,0,0,0,0,0,0,0,-6.0679,-6.0687,-6.1087,-6.1089,-6.1091,-6.1253,-6.1256,-6.1258,-6.115,-6.1144,-6.1138,-6.1132,-6.1307,-6.1318,-6.1329,0,0,0,0,0,0,0,0,0,0,0,0,0,-6.0852,-6.069,-6.1086,-6.1057,-6.1056,-6.1253,-6.1256,-6.1259,-6.1151,-6.1144,-6.1136,-6.1129,-6.1303,-6.1317,-6.1331,-6.1568,0,0,-6.1374,-6.138,0,0,0,0,0,0,0,0,-6.0843,-6.0867,-6.1059,-6.1059,-6.1058,-6.1173,-6.1176,-6.1363,-6.1153,-6.1115,-6.1134,-6.1126,-6.1271,-6.1287,-6.1335,-6.1576,-6.1584,-6.1375,-6.1383,-6.1389,-6.1393,0,0,0,0,0,0,0,-6.0831,-6.086,-6.1153,-6.1062,-6.1062,-6.1036,-6.1053,-6.1211,-6.1233,-6.1118,-6.1111,-6.1132,-6.1269,-6.1322,-6.1338,-6.1586,-6.1374,-6.1387,-6.1396,-6.1401,-6.2033,-6.2041,0,0,0,0,0,0,-6.0821,-6.085,-6.1148,-6.1158,-6.093,-6.105,-6.1068,-6.1144,-6.1231,-6.1237,-6.1138,-6.1126,-6.1301,-6.1322,-6.1344,-6.163,-6.1389,-6.1402,-6.141,-6.2025,-6.2035,-6.2044,0,0,0,0,0,0,-6.0812,-6.0848,-6.1141,-6.1002,-6.1038,-6.1065,-6.1151,-6.1151,-6.1203,-6.1246,-6.125,-6.1187,-6.1296,-6.1324,-6.1513,-6.1634,-6.1409,-6.1422,-6.2015,-6.2028,-6.2039,-6.2202,0,0,0,0,0,0,-6.0801,-6.0846,-6.0935,-6.1005,-6.1045,-6.1307,-6.1158,-6.116,-6.1227,-6.1213,-6.1294,-6.13,-6.1293,-6.1493,-6.1527,-6.1649,-6.1432,-6.2004,-6.2021,-6.2035,-6.2186,-6.2218,-6.2246,0,0,0,0,0,-6.0787,-6.0975,-6.094,-6.0977,-6.1158,-6.1314,-6.1337,-6.1324,-6.1237,-6.1329,-6.1356,-6.1297,-6.1615,-6.1513,-6.1551,-6.1679,-6.1997,-6.2016,-6.2034,-6.2172,-6.2212,-6.2246,0,0,0,0,0,0,-6.092,-6.0984,-6.0946,-6.1162,-6.1233,-6.1295,-6.141,-6.1366,-6.1464,-6.1447,-6.1428,-6.1447,-6.1645,-6.168,-6.1566,-6.1914,-6.1792,-6.182,-6.1885,-6.1923,-6.1952,-6.1941,-6.1444,0,0,0,0,0,-6.0975,-6.1095,-6.1144,-6.133,-6.1367,-6.1383,-6.145,-6.1434,-6.1507,-6.1537,-6.1578,-6.1654,-6.177,-6.1848,-6.1957,-6.2189,-6.2207,-6.2296,-6.2326,-6.2351,-6.2376,-6.2504,-6.2545,-6.2106,-6.2106,-6.2105,0,0,-6.1089,-6.1138,-6.1215,-6.1358,-6.1411,-6.1538,-6.1409,-6.1548,-6.1642,-6.1559,-6.174,-6.1773,-6.1856,-6.2068,-6.2163,-6.2104,-6.25,-6.2375,-6.2394,-6.2406,-6.2527,-6.2569,-6.2606,-6.2119,-6.2116,-6.2114,0,0,-6.1362,-6.141,-6.1571,-6.1627,-6.1709,-6.1718,-6.1756,-6.1825,-6.1844,-6.2025,-6.1965,-6.2078,-6.2279,-6.2341,-6.2398,-6.2695,-6.2646,-6.2731,-6.289,-6.3015,-6.305,-6.308,-6.3189,-6.3228,-6.2755,-6.2756,-6.2756,0,-6.1494,-6.1681,-6.166,-6.1804,-6.187,-6.1798,-6.1962,-6.2018,-6.2132,-6.218,-6.211,-6.2362,-6.2412,-6.2639,-6.2711,-6.2759,-6.2805,-6.2723,-6.3046,-6.3076,-6.3105,-6.3208,-6.3249,-6.2766,-6.2764,-6.2763,-6.2762,0,-6.1841,-6.1971,-6.2092,-6.2203,-6.2281,-6.2435,-6.2439,-6.2521,-6.2498,-6.2515,-6.2701,-6.2759,-6.288,-6.2931,-6.291,-6.3157,-6.3117,-6.3047,-6.2925,-6.3157,-6.3254,-6.3293,-6.278,-6.2776,-6.2773,-6.2771,0,0,-6.2205,-6.2301,-6.2346,-6.2397,-6.2481,-6.2583,-6.2734,-6.285,-6.2923,-6.3004,-6.3132,-6.3303,-6.3239,-6.3305,-6.329,-6.3399,-6.3634,-6.3316,-6.3318,-6.3375,-6.3911,-6.3966,-6.4012,-6.36,-6.3607,-6.3613,-6.3905,0,-6.2485,-6.2747,-6.2732,-6.2979,-6.3101,-6.3034,-6.3166,-6.3233,-6.3253,-6.336,-6.3382,-6.3505,-6.341,-6.3449,-6.3554,-6.3583,-6.3741,-6.3561,-6.3721,-6.3727,-6.3706,-6.4062,-6.4119,-6.4392,-6.3943,-6.3949,-6.3954,0,-6.2847,-6.2939,-6.3198,-6.3266,-6.3316,-6.3435,-6.3542,-6.3644,-6.372,-6.3726,-6.38,-6.3767,-6.3922,-6.3793,-6.4007,-6.3885,-6.3949,-6.3973,-6.3983,-6.4,-6.3857,-6.4091,-6.4479,-6.4521,-6.4013,-6.4008,-6.4004,0,-6.309,-6.3279,-6.3459,-6.3503,-6.3586,-6.3671,-6.371,-6.3777,-6.3849,-6.3943,-6.3989,-6.41,-6.4162,-6.4249,-6.4248,-6.4153,-6.4466,-6.4336,-6.4478,-6.4479,-6.4549,-6.4546,-6.4956,-6.4586,-6.4585,-6.4585,-6.4584,0,-6.3406,-6.3568,-6.3569,-6.368,-6.386,-6.3842,-6.4021,-6.405,-6.4111,-6.4228,-6.4177,-6.4288,-6.4278,-6.4391,-6.4391,-6.457,-6.4597,-6.4609,-6.4608,-6.4615,-6.4615,-6.466,-6.4642,-6.4596,-6.4593,-6.4591,-6.4589,0,-6.371,-6.3716,-6.3908,-6.397,-6.399,-6.412,-6.4174,-6.428,-6.4294,-6.4443,-6.4477,-6.4501,-6.4631,-6.4637,-6.4787,-6.4787,-6.5006,-6.4982,-6.4981,-6.4977,-6.512,-6.5108,-6.5576,-6.5638,-6.5225,-6.5229,-6.5233,0,-6.3912,-6.4035,-6.411,-6.4184,-6.4227,-6.4347,-6.442,-6.4407,-6.4485,-6.458,-6.4676,-6.48,-6.49,-6.5111,-6.5143,-6.5258,-6.5239,-6.5395,-6.5256,-6.5261,-6.5245,-6.5239,-6.5252,-6.5423,-6.5428,-6.5432,-6.5435,0,-6.4273,-6.427,-6.4375,-6.4484,-6.4571,-6.4656,-6.4734,-6.4798,-6.4795,-6.4885,-6.5017,-6.5094,-6.5247,-6.5373,-6.5485,-6.5526,-6.5482,-6.5478,-6.5517,-6.5528,-6.5523,-6.5531,-6.5058,-6.5468,-6.5464,-6.5462,-6.546,-6.5459,-6.4534,-6.4641,-6.471,-6.483,-6.4887,-6.4962,-6.5065,-6.5092,-6.5201,-6.5324,-6.531,-6.5457,-6.553,-6.5676,-6.5727,-6.5843,-6.579,-6.5846,-6.5861,-6.5876,-6.5893,-6.5502,-6.5863,-6.5862,-6.5861,-6.586,-6.586,0,-6.4894,-6.4935,-6.5045,-6.5157,-6.5252,-6.5198,-6.5282,-6.5366,-6.5496,-6.5567,-6.5666,-6.5818,-6.594,-6.5981,-6.61,-6.6185,-6.6168,-6.6217,-6.6213,-6.6223,-6.5932,-6.5887,-6.6229,-6.6229,-6.6229,-6.6229,-6.6229,-6.6229,-6.5093,-6.5271,-6.5277,-6.5484,-6.5524,-6.5667,-6.572,-6.5789,-6.5846,-6.6018,-6.6119,-6.6143,-6.6204,-6.6326,-6.6436,-6.6445,-6.6493,-6.6552,-6.6553,-6.6281,-6.6244,-6.6208,-6.6166,-6.6561,-6.6562,-6.6835,-6.6837,-6.6839]},{"header":{"parameterUnit":"m.s-1","parameterCategory":1,"la1":30.2991,"la2":30.254,"lo1":-89.0895,"lo2":-89.0444,"dy":0.0017,"dx":0.0017,"nx":28,"ny":28,"refTime":"2023-11-13T09:00:00:Z","depth":0,"parameterNumber":3,"parameterNumberName":"V-component_of_WINDS"},"data":[0,0,0,0,0,0,0,0,0,0,0,0,0,0,0,0,0,0,0,0,0,0,0,0,0,0,0,0,0,0,0,0,0,0,0,0,0,0,0,0,0,0,0,0,0,0,0,0,0,0,0,0,0,0,0,0,0,0,-3.6823,-3.6823,0,-3.6828,-3.6828,-3.6828,-3.6801,-3.6801,-3.68,-3.6799,-3.6804,-3.6805,-3.6805,0,0,0,0,0,0,0,0,0,0,0,0,0,-3.6789,-3.679,-3.6823,-3.6823,-3.6823,-3.6828,-3.6828,-3.6828,-3.6801,-3.6801,-3.68,-3.6799,-3.6803,-3.6804,-3.6805,0,0,0,0,0,0,0,0,0,0,0,0,0,-3.68,-3.679,-3.6823,-3.6811,-3.681,-3.6828,-3.6828,-3.6829,-3.6802,-3.6801,-3.6799,-3.6798,-3.6803,-3.6804,-3.6806,-3.6837,0,0,-3.6809,-3.681,0,0,0,0,0,0,0,0,-3.6799,-3.6801,-3.6812,-3.6812,-3.681,-3.6813,-3.6818,-3.6831,-3.6802,-3.6805,-3.6799,-3.6798,-3.6808,-3.6809,-3.6812,-3.6837,-3.6837,-3.681,-3.681,-3.6811,-3.6811,0,0,0,0,0,0,0,-3.6799,-3.6801,-3.6825,-3.6813,-3.6811,-3.6804,-3.6804,-3.682,-3.6813,-3.6804,-3.6802,-3.6803,-3.6807,-3.6811,-3.6812,-3.6837,-3.681,-3.6811,-3.6811,-3.6812,-3.6886,-3.6887,0,0,0,0,0,0,-3.68,-3.68,-3.6825,-3.6825,-3.6802,-3.6806,-3.6806,-3.6813,-3.6812,-3.6811,-3.6804,-3.6802,-3.6809,-3.681,-3.6812,-3.6847,-3.6811,-3.6812,-3.6813,-3.6885,-3.6887,-3.6888,0,0,0,0,0,0,-3.6799,-3.6802,-3.6825,-3.6812,-3.6815,-3.6808,-3.6816,-3.6814,-3.6818,-3.6812,-3.6811,-3.681,-3.6808,-3.681,-3.683,-3.6847,-3.6813,-3.6814,-3.6884,-3.6886,-3.6887,-3.6919,0,0,0,0,0,0,-3.6798,-3.6802,-3.6814,-3.6813,-3.6816,-3.6844,-3.6817,-3.6815,-3.682,-3.6817,-3.6817,-3.6816,-3.6808,-3.6829,-3.6832,-3.6848,-3.6815,-3.6882,-3.6885,-3.6887,-3.6916,-3.6922,-3.6926,0,0,0,0,0,-3.6797,-3.6823,-3.6815,-3.6818,-3.6831,-3.6845,-3.6846,-3.6836,-3.6822,-3.6834,-3.683,-3.6816,-3.6845,-3.6831,-3.6834,-3.6851,-3.6881,-3.6884,-3.6886,-3.6914,-3.6921,-3.6926,0,0,0,0,0,0,-3.6827,-3.6823,-3.6814,-3.6841,-3.6843,-3.684,-3.6855,-3.6844,-3.6851,-3.6848,-3.6835,-3.6835,-3.6857,-3.6856,-3.6841,-3.6881,-3.686,-3.6864,-3.688,-3.6886,-3.6891,-3.6891,-3.6816,0,0,0,0,0,-3.6837,-3.6849,-3.6845,-3.6869,-3.687,-3.6863,-3.6868,-3.686,-3.6863,-3.6864,-3.6861,-3.6864,-3.6873,-3.688,-3.6888,-3.6916,-3.6915,-3.6929,-3.6934,-3.6938,-3.6941,-3.6955,-3.6961,-3.6897,-3.6897,-3.6897,0,0,-3.6857,-3.6856,-3.6865,-3.6875,-3.6876,-3.6888,-3.6864,-3.6878,-3.6887,-3.6866,-3.6884,-3.6883,-3.6885,-3.6909,-3.6919,-3.6909,-3.6959,-3.6942,-3.6945,-3.6946,-3.6958,-3.6964,-3.697,-3.6899,-3.6898,-3.6898,0,0,-3.69,-3.6901,-3.6921,-3.6922,-3.6924,-3.6918,-3.6923,-3.6922,-3.692,-3.6938,-3.6922,-3.6932,-3.6949,-3.6951,-3.6954,-3.6996,-3.6983,-3.6999,-3.7024,-3.7038,-3.7043,-3.7047,-3.7061,-3.7066,-3.7002,-3.7002,-3.7002,0,-3.6925,-3.6944,-3.6932,-3.6947,-3.6951,-3.6932,-3.6951,-3.6953,-3.6958,-3.6961,-3.6949,-3.6969,-3.6969,-3.6993,-3.7003,-3.7006,-3.701,-3.6999,-3.7043,-3.7047,-3.7051,-3.7064,-3.707,-3.7004,-3.7004,-3.7004,-3.7004,0,-3.6973,-3.6986,-3.7002,-3.7006,-3.7012,-3.7029,-3.7019,-3.7027,-3.7018,-3.7013,-3.7032,-3.7031,-3.7038,-3.7043,-3.7035,-3.7065,-3.7058,-3.7045,-3.7024,-3.7059,-3.7071,-3.7076,-3.7007,-3.7006,-3.7006,-3.7005,0,0,-3.7037,-3.7033,-3.7039,-3.704,-3.704,-3.705,-3.7065,-3.7072,-3.7078,-3.7082,-3.7094,-3.7108,-3.7095,-3.7099,-3.709,-3.7102,-3.7134,-3.7087,-3.7087,-3.7095,-3.7166,-3.7175,-3.7182,-3.7126,-3.7127,-3.7127,-3.7165,0,-3.7078,-3.7104,-3.7094,-3.7121,-3.7132,-3.7113,-3.7127,-3.7128,-3.7124,-3.7132,-3.7127,-3.7137,-3.712,-3.7122,-3.7133,-3.7128,-3.7148,-3.7125,-3.7136,-3.7137,-3.7136,-3.7188,-3.7198,-3.7234,-3.717,-3.7171,-3.7172,0,-3.713,-3.7135,-3.7163,-3.716,-3.7164,-3.7176,-3.7181,-3.7189,-3.719,-3.7186,-3.7189,-3.7178,-3.7192,-3.7172,-3.7191,-3.7175,-3.7179,-3.7177,-3.7178,-3.7179,-3.7156,-3.7189,-3.7246,-3.7251,-3.7179,-3.7179,-3.7178,0,-3.7171,-3.7185,-3.7203,-3.7205,-3.7202,-3.7211,-3.721,-3.7209,-3.7214,-3.7218,-3.722,-3.7227,-3.723,-3.7234,-3.7224,-3.7211,-3.7244,-3.7224,-3.7241,-3.7241,-3.7249,-3.7248,-3.7306,-3.7252,-3.7252,-3.7252,-3.7252,0,-3.7218,-3.7236,-3.7222,-3.7233,-3.7252,-3.7239,-3.7258,-3.7255,-3.7255,-3.7264,-3.7249,-3.7258,-3.7245,-3.7253,-3.7246,-3.7262,-3.7264,-3.7261,-3.7258,-3.7262,-3.7262,-3.7263,-3.726,-3.7254,-3.7253,-3.7253,-3.7253,0,-3.7268,-3.726,-3.7278,-3.7273,-3.7272,-3.7286,-3.7282,-3.7292,-3.7286,-3.7298,-3.7301,-3.7292,-3.73,-3.7291,-3.7299,-3.7294,-3.7316,-3.731,-3.7315,-3.7314,-3.7331,-3.7329,-3.7392,-3.7399,-3.7341,-3.7342,-3.7342,0,-3.7298,-3.7311,-3.7308,-3.7313,-3.7313,-3.7322,-3.7326,-3.7314,-3.7318,-3.7319,-3.7329,-3.7336,-3.7341,-3.7355,-3.7349,-3.7355,-3.7349,-3.737,-3.735,-3.7352,-3.7348,-3.7347,-3.7348,-3.7374,-3.7375,-3.7376,-3.7376,0,-3.7353,-3.7347,-3.7354,-3.7358,-3.7364,-3.7367,-3.7369,-3.7374,-3.7361,-3.7367,-3.7376,-3.7379,-3.7387,-3.7394,-3.7398,-3.7396,-3.7384,-3.7383,-3.7387,-3.739,-3.7392,-3.739,-3.7326,-3.7381,-3.7381,-3.738,-3.738,-3.738,-3.7393,-3.7403,-3.7401,-3.7409,-3.7409,-3.7411,-3.7419,-3.7414,-3.7421,-3.7426,-3.7418,-3.7428,-3.7427,-3.7431,-3.7431,-3.7438,-3.7429,-3.7435,-3.7437,-3.7438,-3.7441,-3.7391,-3.7439,-3.7439,-3.7439,-3.7439,-3.7438,0,-3.7445,-3.7443,-3.745,-3.7453,-3.7458,-3.7446,-3.7447,-3.7452,-3.7461,-3.7461,-3.7466,-3.7475,-3.7481,-3.7476,-3.7481,-3.7488,-3.7482,-3.7489,-3.7488,-3.7488,-3.7449,-3.7444,-3.7494,-3.7494,-3.7494,-3.7494,-3.7494,-3.7494,-3.7473,-3.7489,-3.7484,-3.7499,-3.7496,-3.7506,-3.7507,-3.7509,-3.7508,-3.7519,-3.7524,-3.752,-3.7517,-3.7522,-3.7527,-3.7525,-3.7527,-3.7537,-3.7533,-3.7496,-3.7491,-3.7486,-3.7481,-3.7537,-3.7538,-3.7571,-3.7571,-3.7571]}]]